[[{"header":{"parameterUnit":"m.s-1","parameterCategory":1,"la1":30.2991,"la2":30.254,"lo1":-89.0895,"lo2":-89.0444,"dy":0.0017,"dx":0.0017,"nx":28,"ny":28,"refTime":"2024-07-29T09:00:00:Z","depth":0,"parameterNumber":2,"parameterNumberName":"U-component_of_WINDS"},"data":[0,0,0,0,0,0,0,0,0,0,0,0,0,0,0,0,0,0,0,0,0,0,0,0,0,0,0,0,0,0,0,0,0,0,0,0,0,0,0,0,0,0,0,0,0,0,0,0,0,0,0,0,0,0,0,0,0,0,2.9274,2.9274,0,2.9285,2.9286,2.9286,2.9208,2.9206,2.9204,2.9202,2.9214,2.9216,2.9219,0,0,0,0,0,0,0,0,0,0,0,0,0,2.9186,2.9188,2.9274,2.9275,2.9275,2.9285,2.9286,2.9286,2.9209,2.9206,2.9204,2.9201,2.9213,2.9216,2.9219,0,0,0,0,0,0,0,0,0,0,0,0,0,2.9213,2.9189,2.9274,2.9238,2.9234,2.9285,2.9286,2.9286,2.9209,2.9206,2.9203,2.92,2.9212,2.9216,2.9219,2.9306,0,0,2.923,2.9232,0,0,0,0,0,0,0,0,2.9212,2.9217,2.9243,2.924,2.9237,2.9242,2.9259,2.9293,2.921,2.9219,2.9202,2.9198,2.9226,2.9228,2.9238,2.9307,2.9308,2.923,2.9233,2.9234,2.9235,0,0,0,0,0,0,0,2.921,2.9216,2.9279,2.9243,2.924,2.922,2.9221,2.9265,2.9241,2.9218,2.9212,2.9215,2.9224,2.9234,2.9237,2.9308,2.923,2.9233,2.9236,2.9237,2.9445,2.9449,0,0,0,0,0,0,2.9213,2.9215,2.9278,2.9279,2.9216,2.9224,2.9225,2.9244,2.924,2.9236,2.9217,2.9211,2.923,2.9233,2.9238,2.9336,2.9234,2.9237,2.9239,2.9442,2.9446,2.945,0,0,0,0,0,0,2.9212,2.922,2.9278,2.9245,2.9251,2.9229,2.9251,2.9246,2.9256,2.924,2.9235,2.9233,2.9228,2.9233,2.9289,2.9336,2.9239,2.9242,2.9438,2.9443,2.9448,2.9536,0,0,0,0,0,0,2.9209,2.9219,2.9253,2.9247,2.9253,2.933,2.9254,2.9248,2.9262,2.9254,2.9253,2.9249,2.9225,2.9284,2.9293,2.9339,2.9245,2.9434,2.944,2.9446,2.9529,2.9544,2.9556,0,0,0,0,0,2.9206,2.9278,2.9255,2.9263,2.9294,2.9333,2.9336,2.9307,2.9266,2.9299,2.9288,2.9249,2.933,2.9291,2.9299,2.9347,2.9431,2.9439,2.9446,2.9523,2.9541,2.9556,0,0,0,0,0,0,2.9291,2.9277,2.9251,2.9322,2.9329,2.932,2.936,2.9328,2.9346,2.9338,2.9301,2.9302,2.9363,2.9362,2.9318,2.943,2.9373,2.9383,2.9428,2.9445,2.9459,2.9457,2.9248,0,0,0,0,0,2.9318,2.935,2.9336,2.9401,2.9405,2.9382,2.9398,2.9375,2.938,2.9383,2.9376,2.9383,2.9409,2.9428,2.9452,2.9529,2.9526,2.9566,2.958,2.9591,2.96,2.9637,2.9654,2.9475,2.9475,2.9475,0,0,2.9374,2.937,2.9393,2.9417,2.942,2.9453,2.9385,2.9424,2.9448,2.9389,2.944,2.9436,2.9442,2.9508,2.9537,2.9508,2.9649,2.9601,2.961,2.9612,2.9647,2.9664,2.9679,2.948,2.948,2.9479,0,0,2.9492,2.9494,2.9546,2.9549,2.9553,2.9537,2.955,2.9545,2.9539,2.9591,2.9546,2.9575,2.9622,2.9626,2.9635,2.9753,2.9717,2.9762,2.9833,2.987,2.9884,2.9896,2.9936,2.995,2.9771,2.9771,2.9771,0,2.9561,2.9609,2.9577,2.9618,2.9629,2.9576,2.9628,2.9633,2.9646,2.9654,2.9622,2.9678,2.9678,2.9743,2.9772,2.9782,2.9794,2.9761,2.9885,2.9897,2.9908,2.9945,2.996,2.9776,2.9776,2.9775,2.9775,0,2.9692,2.9726,2.9768,2.9779,2.9796,2.9842,2.9816,2.9836,2.9812,2.9799,2.9851,2.9849,2.987,2.9885,2.9862,2.9946,2.9928,2.9891,2.9833,2.993,2.9964,2.9978,2.9784,2.9782,2.978,2.9779,0,0,2.9863,2.9855,2.987,2.9873,2.9874,2.9899,2.9943,2.9963,2.9979,2.999,3.0024,3.0064,3.0029,3.0039,3.0016,3.005,3.014,3.0008,3.0008,3.003,3.0229,3.0255,3.0272,3.0117,3.0119,3.0122,3.0228,0,2.9976,3.0048,3.002,3.0095,3.0124,3.0074,3.0112,3.0116,3.0105,3.0128,3.0117,3.0144,3.0098,3.0103,3.0134,3.0122,3.0179,3.0115,3.0146,3.0148,3.0144,3.029,3.0318,3.0418,3.0241,3.0244,3.0245,0,3.0117,3.0131,3.0208,3.02,3.0212,3.0246,3.026,3.0284,3.0287,3.0276,3.0287,3.0256,3.0297,3.0241,3.0296,3.0253,3.0264,3.0261,3.0264,3.0263,3.0201,3.0291,3.045,3.0464,3.0266,3.0265,3.0263,0,3.0229,3.0268,3.0318,3.0323,3.0317,3.0341,3.034,3.0339,3.0352,3.0365,3.0373,3.0391,3.0401,3.0415,3.039,3.0352,3.0448,3.039,3.0439,3.0439,3.0459,3.0458,3.0619,3.0472,3.0472,3.0471,3.0471,0,3.0356,3.0405,3.0368,3.0399,3.0451,3.0418,3.0471,3.0464,3.0464,3.0492,3.0451,3.0478,3.0444,3.0468,3.0449,3.0496,3.0501,3.0493,3.0487,3.0495,3.0495,3.05,3.0491,3.0475,3.0474,3.0474,3.0473,0,3.049,3.0468,3.0519,3.0508,3.0506,3.0545,3.0535,3.0563,3.0549,3.0585,3.0591,3.0569,3.0595,3.0572,3.0597,3.0584,3.0645,3.0631,3.0644,3.0638,3.0687,3.0682,3.0855,3.0874,3.0718,3.0719,3.0721,0,3.0571,3.0607,3.0599,3.0614,3.0615,3.064,3.0653,3.0622,3.0636,3.0641,3.0668,3.069,3.0705,3.0748,3.0735,3.0753,3.0737,3.0796,3.0739,3.0745,3.0734,3.0731,3.0733,3.0807,3.0808,3.081,3.0811,0,3.0716,3.0703,3.0722,3.0737,3.0752,3.0763,3.077,3.0785,3.0753,3.0771,3.0796,3.0808,3.0833,3.0854,3.0868,3.0866,3.0833,3.083,3.0841,3.0848,3.0853,3.0848,3.0672,3.0825,3.0824,3.0823,3.0822,3.0821,3.0823,3.0851,3.0849,3.0871,3.0873,3.0881,3.0905,3.0894,3.0914,3.093,3.0911,3.0941,3.0942,3.0957,3.0959,3.0981,3.0956,3.0974,3.0978,3.0982,3.0987,3.0852,3.0984,3.0984,3.0983,3.0983,3.0983,0,3.0963,3.0959,3.098,3.099,3.1007,3.0974,3.0981,3.0997,3.1023,3.1026,3.1042,3.107,3.109,3.1078,3.1095,3.1116,3.1101,3.1121,3.1117,3.1117,3.101,3.0997,3.1132,3.1132,3.1132,3.1132,3.1132,3.1132,3.1037,3.1082,3.1069,3.1114,3.1109,3.1137,3.1143,3.1149,3.1151,3.1183,3.12,3.1192,3.1188,3.1204,3.1221,3.1217,3.1224,3.1249,3.124,3.114,3.1125,3.1111,3.1098,3.1252,3.1252,3.1344,3.1345,3.1345]},{"header":{"parameterUnit":"m.s-1","parameterCategory":1,"la1":30.2991,"la2":30.254,"lo1":-89.0895,"lo2":-89.0444,"dy":0.0017,"dx":0.0017,"nx":28,"ny":28,"refTime":"2024-07-29T09:00:00:Z","depth":0,"parameterNumber":3,"parameterNumberName":"V-component_of_WINDS"},"data":[0,0,0,0,0,0,0,0,0,0,0,0,0,0,0,0,0,0,0,0,0,0,0,0,0,0,0,0,0,0,0,0,0,0,0,0,0,0,0,0,0,0,0,0,0,0,0,0,0,0,0,0,0,0,0,0,0,0,2.863,2.863,0,2.8657,2.8657,2.8658,2.8619,2.8618,2.8616,2.8615,2.8642,2.8644,2.8646,0,0,0,0,0,0,0,0,0,0,0,0,0,2.8544,2.8546,2.863,2.863,2.8631,2.8657,2.8657,2.8658,2.8619,2.8618,2.8616,2.8614,2.8642,2.8644,2.8647,0,0,0,0,0,0,0,0,0,0,0,0,0,2.8577,2.8547,2.863,2.8615,2.8614,2.8657,2.8657,2.8658,2.862,2.8618,2.8616,2.8614,2.8641,2.8644,2.8647,2.8706,0,0,2.8656,2.8657,0,0,0,0,0,0,0,0,2.8576,2.8581,2.8617,2.8616,2.8615,2.8633,2.8637,2.8674,2.862,2.8617,2.8615,2.8613,2.8641,2.8644,2.8653,2.8707,2.8709,2.8656,2.8658,2.8659,2.866,0,0,0,0,0,0,0,2.8573,2.8579,2.8641,2.8617,2.8616,2.8606,2.8609,2.8644,2.864,2.8618,2.8615,2.8618,2.864,2.865,2.8654,2.8709,2.8656,2.8659,2.8661,2.8662,2.8811,2.8813,0,0,0,0,0,0,2.8573,2.8578,2.864,2.8641,2.859,2.8609,2.8612,2.8629,2.864,2.8639,2.862,2.8617,2.8646,2.865,2.8654,2.8723,2.8659,2.8662,2.8664,2.8809,2.8811,2.8814,0,0,0,0,0,0,2.8571,2.8579,2.8639,2.8609,2.8616,2.8613,2.8632,2.8631,2.8641,2.8642,2.8641,2.8632,2.8645,2.865,2.8693,2.8723,2.8664,2.8666,2.8806,2.8809,2.8812,2.8861,0,0,0,0,0,0,2.8569,2.8579,2.8601,2.861,2.8617,2.8678,2.8634,2.8633,2.8646,2.8642,2.8652,2.8652,2.8644,2.8689,2.8696,2.8726,2.8669,2.8803,2.8808,2.8811,2.8857,2.8866,2.8873,0,0,0,0,0,2.8566,2.8615,2.8603,2.8611,2.8646,2.8679,2.8684,2.8673,2.8649,2.8671,2.8672,2.8652,2.8719,2.8694,2.8701,2.8733,2.8801,2.8806,2.8811,2.8853,2.8864,2.8873,0,0,0,0,0,0,2.861,2.8615,2.8602,2.8655,2.8667,2.8673,2.8701,2.8685,2.8704,2.8699,2.8685,2.8688,2.8734,2.8738,2.8709,2.879,2.8756,2.8763,2.8785,2.8796,2.8804,2.8801,2.8671,0,0,0,0,0,2.8626,2.8653,2.8656,2.8702,2.8709,2.8704,2.8718,2.8709,2.8721,2.8726,2.8729,2.8741,2.8764,2.878,2.8802,2.8857,2.8858,2.8883,2.8891,2.8898,2.8903,2.8931,2.8941,2.883,2.883,2.8829,0,0,2.8659,2.8665,2.8683,2.8711,2.8719,2.8747,2.8709,2.874,2.876,2.873,2.877,2.8773,2.8786,2.8834,2.8856,2.8839,2.8934,2.8904,2.8909,2.8911,2.8937,2.8947,2.8957,2.8833,2.8832,2.8832,0,0,2.8733,2.8741,2.878,2.8788,2.8801,2.8797,2.8806,2.8814,2.8815,2.8855,2.8833,2.8856,2.8898,2.8907,2.8917,2.8993,2.8975,2.9001,2.9043,2.907,2.9079,2.9087,2.9112,2.9121,2.9007,2.9007,2.9007,0,2.8773,2.8814,2.8801,2.8833,2.8846,2.882,2.8858,2.8867,2.8886,2.8895,2.8876,2.8926,2.8933,2.8982,2.9001,2.901,2.9019,2.8999,2.9079,2.9086,2.9093,2.9117,2.9127,2.901,2.9009,2.9009,2.9009,0,2.886,2.8889,2.8918,2.8937,2.8952,2.8988,2.898,2.8997,2.8986,2.8984,2.9024,2.9032,2.9053,2.9065,2.9055,2.9113,2.9101,2.9081,2.9047,2.9107,2.9129,2.9138,2.9014,2.9013,2.9012,2.9011,0,0,2.8963,2.8974,2.8984,2.8992,2.9003,2.9025,2.9058,2.9079,2.9093,2.9108,2.9134,2.9169,2.915,2.9161,2.9152,2.9176,2.9233,2.9152,2.9152,2.9165,2.9295,2.9309,2.932,2.9221,2.9223,2.9225,2.9293,0,2.9036,2.9093,2.9082,2.9138,2.9163,2.9138,2.9167,2.9177,2.9176,2.9197,2.9195,2.922,2.9193,2.9199,2.9222,2.9221,2.9259,2.9216,2.9245,2.9246,2.9241,2.9332,2.9348,2.9413,2.9302,2.9304,2.9305,0,2.9128,2.9144,2.9202,2.9208,2.9218,2.9244,2.9262,2.9282,2.9292,2.929,2.9302,2.9288,2.932,2.9286,2.9329,2.9301,2.9312,2.9313,2.9315,2.9316,2.9278,2.9334,2.9433,2.9442,2.9319,2.9318,2.9317,0,2.9195,2.9232,2.927,2.9278,2.9286,2.9304,2.9309,2.9317,2.933,2.9345,2.9353,2.9372,2.9382,2.9397,2.9388,2.9365,2.9433,2.9398,2.943,2.943,2.9445,2.9444,2.9545,2.9454,2.9454,2.9454,2.9454,0,2.9276,2.9312,2.93,2.9324,2.9363,2.935,2.9389,2.9391,2.9398,2.9421,2.9401,2.9423,2.9411,2.9431,2.9425,2.946,2.9466,2.9464,2.9461,2.9465,2.9465,2.9471,2.9465,2.9457,2.9456,2.9456,2.9455,0,2.9357,2.9351,2.9391,2.9395,2.9397,2.9425,2.9429,2.945,2.9447,2.9477,2.9483,2.9478,2.9501,2.9494,2.952,2.9515,2.956,2.9552,2.9556,2.9554,2.9586,2.9582,2.9693,2.9707,2.9609,2.961,2.9611,0,2.9408,2.9435,2.9442,2.9455,2.9461,2.9484,2.9496,2.9485,2.9499,2.9511,2.9531,2.9553,2.9569,2.9607,2.9606,2.9625,2.9617,2.9654,2.9619,2.9621,2.9615,2.9613,2.9615,2.9661,2.9662,2.9663,2.9664,0,2.9499,2.9495,2.9514,2.9532,2.9547,2.9561,2.9572,2.9585,2.9574,2.959,2.9613,2.9626,2.9651,2.9672,2.9689,2.9693,2.9676,2.9675,2.9683,2.9686,2.9686,2.9685,2.9574,2.9672,2.9671,2.9671,2.967,2.967,2.9566,2.9588,2.9596,2.9617,2.9624,2.9636,2.9656,2.9655,2.9674,2.9693,2.9685,2.9712,2.972,2.974,2.9746,2.9766,2.9752,2.9764,2.9767,2.977,2.9773,2.9684,2.977,2.9769,2.9769,2.9769,2.9769,0,2.9655,2.9658,2.9678,2.9695,2.9711,2.9694,2.9706,2.9721,2.9744,2.9753,2.9769,2.9795,2.9815,2.9815,2.9833,2.9849,2.9842,2.9854,2.9852,2.9853,2.9786,2.9776,2.986,2.986,2.986,2.986,2.986,2.986,2.9703,2.9739,2.9735,2.9773,2.9776,2.9802,2.981,2.982,2.9826,2.9856,2.9872,2.9872,2.9877,2.9895,2.9913,2.9912,2.9919,2.9934,2.9931,2.9867,2.9858,2.985,2.984,2.9936,2.9936,2.9996,2.9997,2.9997]}]]